This is the latest recevied weather packets stored in our database for station/object F6DEV-13. If no packets are shown the sender has not sent any weather packets the latest 10 day(s).
| Time | Temp. | Humidity | Pressure | Rain* | Wind** | Luminosity | Snow |
|---|---|---|---|---|---|---|---|
| 1777317370 | 15.56° C | 82% | 1016 hPa | 3.05 mm | - | - | - |
| 1777317041 | 15.56° C | 81% | 1016 hPa | 4.06 mm | - | - | - |
| 1777316741 | 15.56° C | 79% | 1016 hPa | 4.06 mm | - | - | - |
| 1777316411 | 15.56° C | 79% | 1016 hPa | 4.06 mm | - | - | - |
| 1777316081 | 15.56° C | 79% | 1016 hPa | 4.06 mm | - | - | - |
| 1777315751 | 15.56° C | 78% | 1016 hPa | 4.06 mm | - | - | - |
| 1777315455 | 16.11° C | 77% | 1016 hPa | 3.05 mm | - | - | - |
| 1777315420 | 16.11° C | 77% | 1016 hPa | 3.05 mm | - | - | - |
| 1777315121 | 16.11° C | 76% | 1016 hPa | 2.03 mm | - | - | - |
| 1777314791 | 16.11° C | 74% | 1016 hPa | 2.03 mm | - | - | - |
| 1777314461 | 16.11° C | 73% | 1016 hPa | 1.02 mm | - | - | - |
| 1777314161 | 16.11° C | 72% | 1016 hPa | 1.02 mm | - | - | - |
| 1777313861 | 16.67° C | 71% | 1016 hPa | 1.02 mm | - | - | - |
| 1777313530 | 16.67° C | 66% | 1016 hPa | 0 mm | - | - | - |
| 1777313230 | 17.22° C | 65% | 1016 hPa | 0 mm | - | - | - |
| 1777312900 | 17.78° C | 60% | 1016 hPa | 0 mm | - | - | - |
| 1777312607 | 18.33° C | 59% | 1016 hPa | 0 mm | - | - | - |
| 1777312271 | 18.33° C | 54% | 1015 hPa | 0 mm | - | - | - |
| 1777311971 | 18.89° C | 56% | 1015 hPa | 0 mm | - | - | - |
| 1777311641 | 19.44° C | 59% | 1015 hPa | 0 mm | - | - | - |
| 1777311341 | 19.44° C | 58% | 1015 hPa | 0 mm | - | - | - |
| 1777311041 | 19.44° C | 57% | 1015 hPa | 0 mm | - | - | - |
| 1777310741 | 20° C | 59% | 1015 hPa | 0 mm | - | - | - |
| 1777310411 | 20° C | 58% | 1015 hPa | 0 mm | - | - | - |
| 1777310173 | 20.56° C | 56% | 1015 hPa | 0 mm | - | - | - |
* Rain latest hour (hover to see other rain measurements)
** Current wind speed in m/s (hover to see current wind gust speed)